QPF
0.00 0.00 0.00 0.00 0.00 0.00 0.00 0.00 0.00 0.00 0.00 0.00 0.00 0.00 0.00 0.00 0.00 0.00 0.00 0.00 0.00 0.00 0.00 0.00 0.00 0.00 0.00 0.00 0.00 0.00 0.00 0.01 0.00 0.00 0.00 0.00 0.00 0.00 0.00 0.00 0.02 0.01 0.00 0.00 0.00
0.00 0.00 0.00 0.00 0.00 0.00 0.00 0.00 0.00 0.00 0.00 0.00 0.00 0.00 0.00 0.00 0.00 0.00 0.00 0.00 0.00 0.00 0.00 0.00 0.00 0.00 0.00 0.00 0.00 0.00 0.00 0.01 0.01 0.00 0.00 0.00 0.00 0.00 0.00 0.00 0.00 0.00 0.00 0.00 0.00
0.00 0.00 0.00 0.00 0.00 0.00 0.00 0.00 0.00 0.00 0.00 0.00 0.00 0.00 0.00 0.00 0.00 0.00 0.00 0.00 0.00 0.00 0.00 0.00 0.00 0.00 0.00 0.00 0.00 0.00 0.00 0.04 0.01 0.00 0.01 0.00 0.00 0.00 0.00 0.00 0.00 0.00 0.00 0.00 0.00
0.00 0.00 0.00 0.00 0.00 0.00 0.00 0.00 0.00 0.00 0.00 0.00 0.00 0.00 0.00 0.00 0.00 0.00 0.00 0.00 0.00 0.00 0.00 0.00 0.00 0.00 0.00 0.00 0.00 0.00 0.01 0.02 0.05 0.01 0.01 0.00 0.00 0.00 0.00 0.00 0.01 0.00 0.00 0.00 0.00
0.00 0.00 0.00 0.00 0.00 0.00 0.00 0.00 0.00 0.00 0.00 0.00 0.00 0.00 0.00 0.00 0.00 0.00 0.00 0.00 0.00 0.00 0.00 0.00 0.00 0.00 0.00 0.00 0.00 0.01 0.04 0.04 0.07 0.02 0.01 0.00 0.00 0.00 0.01 0.03 0.02 0.00 0.00 0.00 0.00
0.00 0.00 0.00 0.00 0.00 0.00 0.00 0.00 0.00 0.00 0.00 0.00 0.00 0.00 0.00 0.00 0.00 0.00 0.00 0.00 0.00 0.00 0.00 0.00 0.00 0.00 0.00 0.00 0.00 0.01 0.07 0.06 0.03 0.02 0.01 0.00 0.00 0.00 0.05 0.02 0.01 0.00 0.00 0.00 0.00
0.00 0.00 0.00 0.00 0.00 0.00 0.00 0.00 0.00 0.00 0.00 0.00 0.00 0.00 0.00 0.00 0.00 0.00 0.00 0.00 0.00 0.00 0.00 0.00 0.00 0.00 0.00 0.00 0.00 0.00 0.01 0.01 0.01 0.00 0.03 0.02 0.01 0.00 0.00 0.00 0.00 0.00 0.00 0.00 0.00
0.00 0.00 0.00 0.00 0.00 0.00 0.00 0.00 0.00 0.00 0.00 0.00 0.00 0.00 0.00 0.00 0.00 0.00 0.00 0.00 0.00 0.00 0.00 0.00 0.00 0.00 0.00 0.00 0.00 0.00 0.00 0.00 0.00 0.00 0.01 0.02 0.00 0.01 0.01 0.00 0.00 0.00 0.00 0.00 0.00
0.00 0.00 0.00 0.00 0.00 0.00 0.00 0.00 0.00 0.00 0.00 0.00 0.00 0.00 0.00 0.00 0.00 0.00 0.00 0.00 0.00 0.00 0.00 0.00 0.00 0.00 0.00 0.00 0.00 0.00 0.00 0.00 0.00 0.00 0.00 0.02 0.02 0.05 0.11 0.04 0.00 0.00 0.00 0.00 0.00
0.00 0.00 0.00 0.00 0.00 0.00 0.00 0.00 0.00 0.00 0.00 0.00 0.00 0.00 0.00 0.00 0.00 0.00 0.00 0.00 0.00 0.00 0.00 0.00 0.00 0.00 0.00 0.00 0.00 0.00 0.00 0.00 0.00 0.00 0.00 0.02 0.06 0.10 0.15 0.06 0.00 0.00 0.00 0.00 0.00
0.00 0.00 0.00 0.00 0.00 0.00 0.00 0.00 0.00 0.00 0.00 0.00 0.00 0.00 0.00 0.00 0.00 0.00 0.00 0.00 0.00 0.00 0.00 0.00 0.00 0.00 0.00 0.00 0.00 0.00 0.00 0.00 0.00 0.00 0.00 0.01 0.06 0.04 0.06 0.02 0.00 0.00 0.00 0.00 0.00
0.00 0.00 0.00 0.00 0.00 0.00 0.00 0.00 0.00 0.00 0.00 0.00 0.00 0.00 0.00 0.00 0.00 0.00 0.00 0.00 0.00 0.00 0.00 0.00 0.00 0.00 0.00 0.00 0.00 0.00 0.00 0.00 0.00 0.00 0.00 0.00 0.02 0.09 0.13 0.02 0.00 0.00 0.00 0.00 0.00
0.00 0.00 0.00 0.00 0.00 0.00 0.00 0.00 0.00 0.00 0.00 0.00 0.00 0.00 0.00 0.00 0.00 0.00 0.00 0.00 0.00 0.00 0.00 0.00 0.00 0.00 0.00 0.00 0.00 0.00 0.00 0.00 0.00 0.00 0.00 0.02 0.08 0.16 0.06 0.00 0.00 0.00 0.00 0.00 0.00
0.00 0.00 0.00 0.00 0.00 0.00 0.00 0.00 0.00 0.00 0.00 0.00 0.00 0.00 0.00 0.00 0.00 0.00 0.00 0.00 0.00 0.00 0.00 0.00 0.00 0.00 0.00 0.00 0.00 0.00 0.00 0.00 0.00 0.00 0.01 0.00 0.03 0.03 0.00 0.02 0.00 0.00 0.00 0.00 0.00
0.00 0.00 0.00 0.00 0.00 0.00 0.00 0.00 0.00 0.00 0.00 0.00 0.00 0.00 0.00 0.00 0.00 0.00 0.00 0.00 0.00 0.00 0.00 0.00 0.00 0.00 0.00 0.00 0.00 0.00 0.00 0.00 0.00 0.00 0.00 0.00 0.02 0.00 0.00 0.00 0.00 0.00 0.00 0.00 0.00
0.00 0.00 0.00 0.00 0.00 0.00 0.00 0.00 0.00 0.00 0.00 0.00 0.00 0.00 0.00 0.00 0.00 0.00 0.00 0.00 0.00 0.00 0.00 0.00 0.00 0.00 0.00 0.00 0.00 0.00 0.00 0.00 0.00 0.00 0.00 0.00 0.01 0.00 0.00 0.00 0.00 0.00 0.00 0.00 0.00
0.00 0.00 0.00 0.00 0.00 0.00 0.00 0.00 0.00 0.00 0.00 0.00 0.00 0.00 0.00 0.00 0.00 0.00 0.00 0.00 0.00 0.00 0.00 0.00 0.00 0.00 0.00 0.00 0.00 0.00 0.00 0.00 0.00 0.00 0.00 0.00 0.00 0.00 0.00 0.00 0.00 0.00 0.00 0.00 0.00
0.00 0.00 0.00 0.00 0.00 0.00 0.00 0.00 0.00 0.00 0.00 0.00 0.00 0.00 0.00 0.00 0.00 0.00 0.00 0.00 0.00 0.00 0.00 0.00 0.00 0.00 0.00 0.00 0.00 0.00 0.00 0.00 0.00 0.00 0.00 0.00 0.00 0.00 0.00 0.00 0.00 0.00 0.00 0.00 0.00
0.00 0.00 0.00 0.00 0.00 0.00 0.00 0.00 0.00 0.00 0.00 0.00 0.00 0.00 0.00 0.00 0.00 0.00 0.00 0.00 0.00 0.00 0.00 0.00 0.00 0.00 0.00 0.00 0.00 0.00 0.00 0.00 0.00 0.00 0.00 0.00 0.00 0.00 0.00 0.00 0.00 0.00 0.00 0.00 0.00
0.00 0.00 0.00 0.00 0.00 0.00 0.00 0.00 0.00 0.00 0.00 0.00 0.00 0.00 0.00 0.00 0.00 0.00 0.00 0.00 0.00 0.00 0.00 0.00 0.00 0.00 0.00 0.00 0.00 0.00 0.00 0.00 0.00 0.00 0.00 0.00 0.00 0.00 0.00 0.00 0.00 0.00 0.00 0.00 0.00
0.00 0.00 0.00 0.00 0.00 0.00 0.00 0.00 0.00 0.00 0.00 0.00 0.00 0.00 0.00 0.00 0.00 0.00 0.00 0.00 0.00 0.00 0.00 0.00 0.00 0.00 0.00 0.00 0.00 0.00 0.00 0.00 0.00 0.00 0.00 0.00 0.00 0.00 0.00 0.00 0.00 0.00 0.00 0.00 0.00
0.00 0.00 0.00 0.00 0.00 0.00 0.00 0.00 0.00 0.01 0.00 0.00 0.00 0.00 0.00 0.00 0.00 0.00 0.00 0.00 0.00 0.00 0.00 0.00 0.00 0.00 0.00 0.00 0.00 0.00 0.00 0.00 0.00 0.00 0.00 0.00 0.00 0.00 0.00 0.00 0.00 0.00 0.00 0.00 0.00
0.00 0.00 0.00 0.00 0.00 0.00 0.00 0.00 0.00 0.00 0.01 0.01 0.00 0.00 0.00 0.00 0.00 0.00 0.00 0.00 0.00 0.00 0.00 0.00 0.00 0.00 0.00 0.00 0.00 0.00 0.00 0.00 0.00 0.00 0.00 0.00 0.00 0.00 0.00 0.00 0.00 0.00 0.00 0.00 0.00
0.00 0.00 0.00 0.00 0.00 0.00 0.00 0.00 0.00 0.00 0.02 0.02 0.00 0.00 0.00 0.00 0.00 0.00 0.00 0.00 0.00 0.00 0.00 0.00 0.00 0.00 0.00 0.00 0.00 0.00 0.00 0.00 0.00 0.00 0.00 0.00 0.00 0.00 0.00 0.00 0.00 0.00 0.00 0.00 0.00
0.00 0.00 0.00 0.00 0.00 0.00 0.00 0.00 0.00 0.00 0.00 0.02 0.00 0.00 0.00 0.00 0.00 0.01 0.03 0.01 0.01 0.01 0.01 0.01 0.00 0.00 0.00 0.00 0.00 0.00 0.00 0.00 0.00 0.00 0.00 0.00 0.00 0.00 0.00 0.00 0.00 0.00 0.00 0.00 0.00
0.00 0.00 0.00 0.00 0.00 0.00 0.00 0.00 0.00 0.00 0.00 0.00 0.00 0.01 0.00 0.00 0.00 0.00 0.02 0.01 0.02 0.00 0.01 0.00 0.00 0.00 0.00 0.00 0.00 0.00 0.00 0.00 0.00 0.00 0.00 0.00 0.00 0.00 0.00 0.00 0.00 0.00 0.00 0.00 0.00
0.00 0.00 0.00 0.00 0.00 0.00 0.00 0.00 0.00 0.01 0.00 0.00 0.01 0.02 0.01 0.00 0.00 0.00 0.00 0.00 0.00 0.00 0.00 0.00 0.00 0.00 0.00 0.00 0.00 0.00 0.00 0.00 0.00 0.00 0.00 0.00 0.00 0.00 0.00 0.00 0.00 0.00 0.00 0.00 0.00
MSLP
1017.03 1016.83 1016.64 1016.33 1016.07 1015.87 1015.67 1015.55 1015.49 1015.37 1015.18 1015.04 1014.82 1014.65 1014.42 1014.17 1013.75 1013.80 1012.78 1010.39 1010.41 1010.95 1011.09 1011.64 1012.03 1012.05 1012.32 1012.78 1012.91 1013.51 1015.36 1015.36 1014.89 1014.21 1013.66 1013.73 1014.09 1014.94 1015.47 1015.91 1016.63 1016.88 1017.24 1017.58 1018.62
1017.01 1016.74 1016.54 1016.31 1016.02 1015.84 1015.71 1015.59 1015.47 1015.30 1015.10 1014.91 1014.67 1014.47 1014.23 1014.00 1013.62 1012.62 1009.72 1009.47 1010.06 1010.54 1011.10 1011.25 1011.84 1011.83 1012.22 1012.38 1013.02 1013.82 1014.99 1014.70 1013.86 1013.31 1013.31 1013.72 1013.90 1014.80 1015.75 1016.45 1017.28 1017.44 1017.87 1018.41 1019.14
1016.87 1016.63 1016.39 1016.25 1016.01 1015.77 1015.57 1015.44 1015.31 1015.12 1014.91 1014.68 1014.44 1014.25 1014.01 1013.81 1013.07 1010.28 1008.62 1009.38 1009.64 1010.06 1010.47 1010.84 1011.34 1011.89 1012.58 1012.63 1013.39 1014.04 1014.22 1014.20 1013.24 1012.85 1013.08 1013.71 1014.31 1014.94 1015.80 1017.01 1017.43 1017.80 1018.88 1019.30 1019.77
1016.77 1016.50 1016.24 1016.09 1015.83 1015.58 1015.40 1015.18 1015.06 1014.86 1014.73 1014.51 1014.29 1014.04 1013.78 1013.55 1011.77 1008.99 1008.76 1009.11 1009.67 1010.22 1010.49 1010.72 1011.71 1011.93 1012.63 1013.08 1013.57 1013.99 1013.95 1014.91 1014.03 1012.78 1013.40 1013.96 1014.64 1015.65 1016.06 1016.31 1017.22 1018.01 1018.84 1019.69 1020.36
1016.64 1016.39 1016.18 1015.91 1015.68 1015.40 1015.12 1014.90 1014.80 1014.63 1014.47 1014.32 1014.09 1013.81 1013.60 1012.62 1010.39 1008.57 1008.90 1009.41 1009.92 1010.18 1010.17 1010.18 1011.19 1011.11 1011.99 1012.34 1013.41 1014.24 1014.57 1014.62 1014.31 1013.42 1013.83 1014.45 1015.39 1016.06 1016.94 1017.04 1017.65 1018.49 1019.20 1020.06 1020.63
1016.49 1016.27 1016.11 1015.76 1015.51 1015.26 1014.92 1014.70 1014.57 1014.32 1014.18 1014.07 1013.88 1013.76 1013.19 1011.20 1008.36 1008.50 1008.80 1009.51 1009.60 1009.54 1009.59 1009.96 1010.04 1009.85 1010.94 1012.26 1013.00 1013.95 1014.82 1014.84 1013.64 1014.08 1014.36 1014.72 1015.81 1016.13 1017.93 1017.52 1018.07 1018.77 1019.56 1020.16 1020.68
1016.34 1016.08 1015.88 1015.58 1015.29 1015.00 1014.66 1014.43 1014.31 1014.08 1013.86 1013.76 1013.63 1013.46 1012.34 1009.50 1008.15 1008.57 1008.88 1009.04 1008.97 1008.82 1009.10 1008.93 1009.04 1009.57 1010.89 1012.05 1012.95 1014.05 1014.39 1013.86 1013.18 1013.37 1013.96 1014.67 1016.13 1016.76 1017.28 1017.89 1018.54 1019.19 1019.79 1020.24 1020.61
1016.21 1015.96 1015.72 1015.36 1015.01 1014.74 1014.36 1014.10 1013.87 1013.71 1013.36 1013.35 1013.43 1013.09 1011.04 1008.27 1008.23 1008.87 1009.01 1008.84 1008.56 1008.28 1008.64 1008.58 1008.96 1009.70 1010.83 1012.28 1013.49 1014.34 1014.77 1014.60 1012.84 1013.26 1014.24 1014.84 1016.28 1017.44 1017.75 1018.32 1019.06 1019.57 1020.17 1020.50 1020.76
1016.07 1015.82 1015.53 1015.24 1014.81 1014.34 1013.84 1013.49 1013.25 1013.22 1013.13 1013.16 1013.24 1012.52 1010.10 1008.38 1008.50 1007.86 1008.13 1008.22 1007.84 1007.85 1007.86 1008.30 1008.87 1010.11 1011.56 1012.74 1014.15 1014.63 1014.90 1014.65 1013.46 1012.88 1013.82 1014.92 1016.46 1017.35 1018.19 1018.72 1019.09 1019.27 1019.63 1019.92 1020.37
1015.99 1015.69 1015.42 1015.14 1014.72 1014.16 1013.33 1012.88 1012.66 1012.73 1013.04 1012.93 1012.26 1011.78 1009.31 1007.87 1007.25 1007.21 1007.32 1007.58 1007.75 1007.57 1007.94 1008.19 1009.17 1010.16 1011.40 1012.49 1013.50 1014.02 1014.41 1013.76 1013.30 1012.25 1012.98 1014.75 1016.06 1017.33 1018.40 1019.31 1018.90 1019.21 1019.69 1019.88 1019.55
1015.89 1015.58 1015.28 1015.03 1014.71 1014.23 1013.01 1012.60 1012.94 1012.60 1012.11 1010.88 1010.23 1009.53 1007.92 1007.02 1006.94 1006.88 1006.75 1007.31 1007.55 1008.00 1008.67 1008.91 1009.75 1010.38 1010.29 1010.76 1011.26 1011.99 1012.78 1012.79 1012.25 1012.29 1013.22 1014.53 1016.24 1017.40 1017.49 1018.10 1018.75 1019.12 1019.33 1019.68 1019.41
1015.75 1015.43 1015.12 1014.85 1014.63 1014.38 1014.14 1012.89 1010.79 1010.26 1010.35 1009.22 1008.64 1008.57 1007.83 1007.44 1007.37 1006.64 1006.54 1007.45 1007.72 1008.29 1008.79 1009.49 1009.45 1009.30 1009.15 1009.32 1010.62 1011.14 1011.89 1012.17 1011.88 1011.54 1013.81 1015.04 1016.58 1017.77 1017.79 1017.75 1018.06 1018.61 1018.88 1019.04 1018.98
1015.60 1015.28 1014.91 1014.61 1014.39 1014.30 1013.23 1011.05 1008.81 1009.68 1009.85 1008.02 1007.43 1007.31 1007.07 1007.25 1007.02 1006.58 1006.68 1007.10 1007.70 1008.22 1008.72 1009.45 1008.74 1008.38 1008.12 1008.76 1009.84 1010.66 1011.30 1011.29 1011.58 1012.24 1013.75 1015.47 1017.26 1017.88 1017.91 1017.79 1017.63 1017.45 1017.50 1018.21 1018.32
1015.41 1015.07 1014.74 1014.27 1014.56 1013.17 1011.78 1009.37 1009.04 1009.75 1009.86 1007.78 1006.92 1006.03 1006.21 1006.51 1006.59 1006.03 1006.05 1006.75 1007.50 1007.92 1008.28 1008.65 1007.81 1007.94 1007.89 1008.33 1009.00 1009.26 1009.74 1010.14 1010.77 1011.87 1013.57 1014.50 1017.04 1018.17 1018.15 1017.91 1017.52 1016.55 1016.67 1017.36 1017.87
1015.05 1014.73 1014.59 1014.44 1014.24 1012.74 1010.14 1009.22 1008.94 1009.35 1009.78 1007.34 1005.91 1004.72 1005.15 1006.38 1005.98 1005.56 1005.41 1006.36 1007.04 1007.45 1008.15 1007.80 1007.60 1007.42 1007.97 1007.92 1008.00 1008.67 1009.31 1009.73 1010.42 1011.64 1013.19 1015.03 1016.80 1017.68 1018.08 1018.06 1017.29 1016.64 1016.85 1017.46 1017.83
1014.64 1014.39 1014.22 1014.20 1014.15 1011.18 1009.88 1008.90 1009.08 1010.18 1009.55 1007.39 1005.91 1005.21 1005.69 1005.87 1005.73 1005.38 1005.69 1005.95 1006.30 1007.33 1007.61 1007.52 1006.96 1006.96 1006.95 1007.11 1007.51 1008.06 1009.33 1009.90 1011.01 1012.48 1014.48 1015.25 1016.48 1017.70 1017.80 1017.17 1017.13 1016.95 1016.98 1017.34 1017.71
1014.16 1014.04 1014.13 1013.12 1011.42 1010.28 1009.61 1009.63 1010.63 1010.44 1009.17 1008.52 1007.58 1006.99 1007.03 1006.31 1006.07 1006.01 1006.12 1006.64 1007.24 1008.01 1008.18 1007.56 1007.13 1006.53 1006.57 1007.06 1007.23 1008.30 1010.39 1011.59 1012.76 1014.19 1015.22 1015.68 1016.74 1016.97 1017.01 1016.81 1016.91 1017.05 1017.34 1017.67 1017.81
1013.58 1013.51 1012.74 1011.58 1010.53 1010.38 1010.42 1010.88 1011.09 1010.26 1009.62 1008.78 1008.21 1007.96 1008.17 1007.20 1006.72 1006.58 1006.74 1007.36 1007.87 1008.24 1008.46 1008.29 1007.62 1006.97 1006.91 1007.15 1007.86 1008.76 1010.48 1012.17 1013.62 1015.21 1015.60 1016.18 1017.13 1017.14 1016.85 1016.80 1016.75 1016.93 1017.51 1017.62 1017.89
1012.83 1012.70 1012.30 1009.73 1010.10 1010.72 1011.33 1011.82 1011.32 1010.50 1009.64 1009.06 1008.40 1009.56 1009.74 1008.66 1008.38 1007.44 1008.13 1008.68 1009.08 1008.99 1009.12 1008.74 1008.21 1007.41 1006.94 1006.92 1007.60 1008.85 1010.11 1011.12 1012.97 1014.56 1016.02 1017.02 1017.59 1017.35 1017.16 1016.96 1016.96 1017.23 1017.66 1017.66 1017.92
1012.87 1012.20 1010.44 1008.30 1009.28 1010.34 1011.65 1011.98 1010.96 1010.12 1009.57 1009.55 1010.47 1011.23 1011.45 1010.95 1010.28 1009.27 1009.59 1009.39 1009.26 1009.01 1009.18 1009.41 1009.32 1008.55 1007.54 1007.31 1007.73 1008.53 1009.60 1011.36 1013.32 1015.12 1016.37 1017.25 1017.57 1017.24 1017.20 1016.91 1017.40 1017.71 1017.83 1017.94 1018.03
1012.69 1011.62 1008.36 1008.09 1008.81 1010.98 1012.20 1011.54 1010.54 1009.82 1009.91 1010.47 1011.59 1011.88 1011.97 1012.12 1011.58 1011.06 1010.26 1009.71 1009.00 1009.07 1009.08 1009.81 1010.62 1009.98 1008.92 1008.63 1008.67 1009.03 1010.09 1011.75 1013.42 1015.01 1016.23 1017.19 1017.35 1016.26 1016.44 1016.69 1017.25 1017.44 1017.65 1017.80 1017.92
1012.68 1011.47 1008.18 1007.87 1009.76 1010.87 1011.51 1010.69 1009.94 1009.80 1010.09 1010.77 1010.92 1011.26 1011.79 1012.27 1012.30 1011.65 1010.48 1009.47 1008.94 1008.79 1009.80 1010.41 1011.17 1011.20 1010.44 1009.32 1008.99 1009.33 1010.39 1011.71 1013.81 1014.98 1015.90 1016.59 1016.94 1016.41 1016.58 1016.89 1017.10 1017.23 1017.19 1017.22 1017.47
1013.55 1011.52 1008.52 1008.49 1010.01 1011.16 1010.78 1010.15 1009.61 1009.28 1010.08 1010.96 1010.49 1010.32 1011.16 1011.74 1012.74 1011.71 1011.01 1009.74 1009.59 1010.02 1010.27 1010.82 1011.77 1012.08 1011.14 1010.58 1009.75 1009.80 1010.42 1011.42 1012.85 1014.23 1015.63 1016.66 1017.01 1016.69 1016.72 1016.91 1016.88 1016.83 1017.00 1017.28 1017.27
1014.06 1012.56 1010.49 1009.91 1010.28 1010.70 1010.89 1010.26 1009.55 1008.93 1009.64 1010.89 1010.71 1011.09 1011.91 1012.09 1012.42 1011.12 1010.52 1010.08 1009.90 1010.34 1010.87 1011.42 1012.30 1012.65 1012.49 1011.71 1011.02 1010.58 1010.62 1011.32 1012.61 1014.18 1015.22 1015.69 1016.44 1016.76 1016.74 1016.67 1016.58 1016.75 1016.70 1017.06 1017.52
1014.02 1013.09 1011.63 1011.55 1011.24 1010.96 1011.14 1011.11 1010.27 1010.17 1009.98 1010.30 1010.43 1011.44 1011.22 1011.05 1011.17 1011.07 1010.64 1010.62 1010.62 1010.91 1011.45 1012.03 1012.77 1012.77 1012.38 1011.72 1011.16 1010.85 1010.87 1011.43 1012.28 1012.94 1013.98 1014.62 1015.40 1015.82 1016.09 1016.11 1016.16 1016.48 1016.89 1017.43 1017.75
1013.89 1012.97 1012.28 1012.75 1011.91 1011.83 1012.67 1012.43 1011.72 1011.02 1010.78 1011.08 1011.91 1011.01 1011.47 1009.79 1010.06 1010.51 1010.97 1011.40 1011.46 1011.59 1012.29 1012.62 1012.99 1013.02 1012.67 1011.83 1011.40 1011.01 1011.43 1011.30 1012.43 1012.99 1013.83 1014.59 1015.23 1015.21 1015.73 1015.81 1016.33 1016.82 1017.21 1017.65 1018.21
1013.48 1012.31 1012.44 1013.62 1013.78 1013.78 1014.52 1013.77 1013.02 1012.38 1011.84 1011.01 1012.09 1011.92 1011.91 1009.30 1009.26 1009.76 1010.28 1010.90 1011.09 1011.80 1012.62 1013.10 1013.61 1013.75 1013.62 1012.84 1012.49 1012.69 1013.14 1012.62 1013.20 1013.67 1014.53 1015.02 1015.11 1015.47 1016.12 1016.33 1016.66 1017.14 1017.57 1018.12 1018.42
Thickness
5758 5760 5762 5765 5768 5769 5771 5772 5772 5773 5774 5775 5777 5778 5779 5781 5785 5784 5784 5807 5808 5805 5805 5799 5795 5793 5789 5776 5780 5774 5724 5719 5732 5741 5750 5764 5753 5757 5757 5746 5743 5744 5739 5738 5733
5757 5759 5761 5763 5766 5767 5769 5770 5770 5771 5773 5775 5777 5779 5781 5782 5785 5785 5817 5819 5816 5813 5802 5795 5783 5790 5775 5776 5770 5756 5727 5733 5754 5761 5755 5762 5759 5754 5744 5736 5729 5731 5735 5730 5724
5758 5759 5760 5761 5763 5765 5767 5768 5769 5771 5773 5775 5777 5779 5781 5783 5784 5798 5826 5822 5821 5816 5811 5804 5795 5786 5767 5773 5765 5750 5740 5753 5760 5768 5770 5758 5757 5759 5739 5723 5728 5723 5716 5716 5712
5757 5758 5759 5760 5761 5763 5765 5768 5769 5771 5773 5775 5777 5779 5782 5784 5765 5818 5826 5824 5819 5814 5809 5801 5782 5775 5762 5757 5768 5751 5757 5745 5750 5771 5765 5755 5756 5742 5741 5739 5737 5730 5721 5711 5703
5755 5756 5757 5759 5760 5762 5764 5766 5769 5771 5773 5775 5777 5779 5781 5780 5788 5827 5824 5821 5816 5812 5805 5799 5778 5780 5765 5769 5762 5750 5752 5752 5756 5764 5762 5759 5745 5735 5731 5738 5734 5724 5716 5705 5698
5755 5755 5756 5758 5759 5761 5763 5765 5767 5771 5773 5775 5777 5778 5780 5771 5825 5827 5823 5817 5815 5814 5809 5801 5794 5800 5786 5773 5768 5757 5747 5746 5762 5755 5757 5749 5743 5740 5724 5732 5725 5717 5709 5701 5695
5755 5756 5756 5758 5760 5761 5763 5766 5768 5770 5773 5775 5777 5779 5777 5785 5826 5824 5821 5818 5820 5820 5808 5814 5818 5804 5789 5775 5775 5760 5750 5759 5767 5761 5756 5756 5735 5727 5732 5726 5715 5710 5704 5699 5694
5755 5756 5757 5759 5761 5762 5764 5767 5769 5772 5775 5776 5776 5778 5773 5820 5823 5818 5818 5817 5824 5828 5822 5826 5819 5804 5790 5783 5765 5750 5741 5732 5765 5763 5755 5749 5716 5723 5729 5720 5708 5703 5697 5694 5690
5755 5757 5758 5759 5762 5764 5768 5771 5773 5774 5775 5775 5774 5776 5773 5819 5807 5823 5823 5812 5824 5827 5827 5828 5817 5792 5783 5755 5736 5740 5723 5728 5746 5768 5751 5738 5714 5723 5718 5710 5703 5699 5699 5696 5691
5754 5756 5758 5759 5761 5765 5771 5775 5776 5776 5774 5774 5779 5769 5792 5795 5816 5824 5829 5824 5816 5820 5811 5809 5793 5772 5762 5747 5724 5727 5720 5735 5732 5760 5754 5730 5719 5714 5709 5697 5702 5700 5696 5695 5693
5753 5755 5757 5758 5760 5763 5772 5776 5768 5766 5772 5773 5776 5777 5794 5813 5822 5817 5828 5817 5816 5802 5775 5789 5768 5751 5767 5770 5768 5760 5743 5739 5747 5756 5745 5727 5709 5702 5709 5708 5701 5697 5691 5690 5690
5753 5755 5756 5758 5759 5761 5762 5766 5778 5786 5761 5788 5790 5785 5799 5804 5784 5805 5826 5795 5792 5771 5782 5767 5753 5777 5786 5788 5766 5759 5742 5736 5749 5760 5729 5719 5703 5697 5703 5704 5703 5696 5691 5688 5687
5752 5755 5756 5758 5760 5761 5767 5778 5802 5793 5758 5783 5792 5788 5794 5800 5786 5791 5809 5799 5785 5774 5774 5756 5772 5791 5788 5777 5764 5749 5741 5748 5746 5743 5728 5707 5690 5689 5696 5699 5701 5701 5700 5688 5686
5752 5755 5756 5759 5759 5767 5769 5795 5798 5791 5729 5761 5782 5794 5802 5801 5783 5816 5817 5803 5787 5773 5777 5768 5789 5783 5780 5766 5768 5751 5768 5764 5759 5744 5711 5725 5672 5683 5685 5685 5693 5708 5699 5690 5684
5753 5755 5755 5755 5757 5763 5785 5795 5799 5783 5693 5773 5787 5827 5812 5786 5794 5801 5824 5804 5778 5780 5778 5770 5780 5775 5764 5772 5782 5764 5770 5766 5760 5743 5724 5707 5674 5677 5680 5675 5682 5695 5691 5682 5676
5754 5755 5756 5755 5753 5777 5788 5797 5788 5724 5696 5759 5788 5790 5787 5793 5794 5805 5803 5813 5808 5782 5784 5778 5801 5791 5784 5789 5789 5783 5762 5751 5741 5721 5691 5698 5681 5667 5668 5681 5683 5685 5684 5678 5671
5756 5756 5755 5761 5769 5782 5789 5778 5721 5701 5755 5745 5754 5769 5763 5776 5784 5787 5784 5776 5762 5746 5746 5769 5779 5794 5795 5774 5782 5763 5725 5691 5695 5680 5675 5693 5675 5672 5680 5683 5679 5677 5674 5666 5661
5759 5759 5764 5771 5779 5780 5775 5743 5711 5737 5742 5765 5764 5764 5752 5772 5779 5784 5777 5760 5774 5762 5743 5737 5733 5776 5787 5771 5755 5752 5727 5687 5674 5663 5677 5684 5657 5663 5680 5680 5682 5678 5667 5660 5654
5764 5764 5765 5784 5782 5776 5749 5707 5715 5735 5756 5757 5764 5733 5732 5752 5759 5774 5755 5750 5754 5757 5738 5730 5738 5780 5783 5785 5771 5744 5725 5733 5699 5694 5665 5656 5661 5674 5673 5673 5671 5662 5657 5653 5647
5761 5765 5771 5793 5785 5768 5730 5713 5737 5754 5759 5754 5725 5728 5715 5725 5732 5745 5738 5757 5753 5764 5762 5747 5721 5761 5774 5778 5770 5751 5748 5709 5685 5669 5662 5651 5648 5646 5660 5663 5659 5653 5648 5644 5639
5761 5756 5785 5792 5784 5743 5714 5720 5743 5757 5753 5735 5709 5714 5719 5717 5725 5727 5736 5753 5766 5763 5768 5750 5725 5729 5751 5739 5732 5728 5714 5705 5692 5673 5653 5638 5639 5670 5667 5664 5653 5648 5644 5640 5634
5754 5739 5788 5792 5739 5729 5721 5738 5755 5750 5751 5739 5734 5730 5722 5720 5718 5722 5733 5749 5770 5767 5745 5744 5719 5702 5723 5743 5751 5740 5720 5701 5669 5672 5662 5645 5638 5668 5664 5656 5654 5649 5647 5645 5634
5741 5744 5781 5778 5721 5721 5734 5748 5754 5751 5738 5726 5738 5745 5738 5729 5710 5730 5733 5758 5758 5751 5741 5740 5712 5686 5698 5711 5728 5723 5722 5708 5688 5670 5663 5642 5635 5665 5660 5652 5650 5647 5643 5637 5635
5738 5726 5748 5754 5743 5735 5738 5739 5745 5760 5746 5733 5735 5737 5722 5717 5717 5730 5738 5749 5754 5747 5740 5733 5707 5693 5673 5690 5702 5705 5712 5705 5682 5650 5656 5654 5646 5649 5649 5647 5647 5640 5641 5636 5624
5734 5729 5744 5720 5729 5735 5733 5730 5736 5727 5744 5739 5737 5730 5725 5722 5720 5721 5732 5737 5742 5737 5733 5720 5694 5703 5703 5709 5711 5708 5706 5698 5686 5679 5659 5662 5653 5654 5650 5650 5647 5639 5631 5620 5613
5730 5729 5731 5716 5728 5726 5710 5716 5720 5726 5733 5723 5712 5727 5718 5736 5731 5713 5721 5717 5714 5725 5715 5710 5689 5700 5692 5708 5709 5704 5697 5703 5688 5680 5662 5658 5652 5658 5651 5647 5637 5627 5619 5610 5600
5736 5742 5729 5708 5706 5701 5692 5706 5710 5718 5724 5731 5711 5709 5703 5742 5750 5747 5738 5727 5727 5713 5704 5698 5689 5684 5675 5695 5693 5674 5676 5683 5675 5672 5657 5644 5648 5648 5640 5636 5625 5619 5612 5602 5596